User: anonymous   Login
Location: Unspecified
(0.0000°N, 0.0000°E)
Time: 01:23:29
(UTC+02:00)
Language:

Hubble Space Telescope - Orbit

View from above orbital plane
View from above orbital plane
View from above satellite
View from above satellite

Ground track
Ground track

The orbit data is extracted from the following two-line orbital elements,

1 20580U 90037B   16144.95277957 +.00000850 +00000-0 +42084-4 0  9996
2 20580 028.4704 058.7545 0002595 310.1451 131.8605 15.08364909231366
Epoch (UTC): 23 May 2016 22:52:00
Eccentricity: 0.0002595
inclination: 28.4704°
perigee height: 539 km
apogee height: 543 km
right ascension of ascending node: 58.7545°
argument of perigee: 310.1451°
revolutions per day: 15.08364909
mean anomaly at epoch: 131.8605°
orbit number at epoch: 23136

The dashed part of the orbit path shows where the satellite is in the earth's shadow,  

DLR